Location: Zagreb
(45.8000°N, 16.0000°E)
Time: 21:02:56
(UTC+01:00)

deb Explorer IX - Pass Details

Date: 10 October 2020
Orbit: 537 x 1106 km, 38.8° (Epoch: 30 October)

Event Time Altitude Azimuth Distance (km) Brightness Sun altitude
Rises 17:46:59 0° 269° (W) 3,479 ? 4.6°
Reaches altitude 10° 17:50:06 10° 258° (WSW) 2,429 ? 4.1°
Maximum altitude 17:54:42 26° 204° (SSW) 1,452 ? 3.3°
Drops below altitude 10° 17:58:46 10° 148° (SSE) 2,112 ? 2.6°
Sets 18:01:17 0° 135° (SE) 2,936 ? 2.2°
